Location: Black Swamp Observatory
(41.3920°N, 84.1250°W)
Time: 00:01:11
(UTC-04:00)

Amateur Radio Satellites - All Passes

Search period start: 30 September 2014 23:31
Search period end: 01 October 2014 23:31
Location: Black Swamp Observatory, 41.3920°N, 84.1250°W

Satellite Date Start Highest point End Downlink Frequencies (MHz)
Time Altitude Azimuth
UKube-1 30 Sep 23:38:17 23:40:35 14° 268° (W) 23:42:55 145.840 MHz, 145.915 MHz
KITSAT 1 30 Sep 23:43:51 23:46:47 12° 13° (NNE) 23:49:43 435.175 FM
Saudisat 1A 30 Sep 23:50:19 23:54:45 78° 56° (ENE) 23:59:09 436.775 MHz
UOSAT-12 01 Oct 00:05:39 00:08:08 14° 323° (NW) 00:10:39 437.025 FM, 437.400 FM
ZACube-1 01 Oct 00:16:31 00:19:43 19° 268° (W) 00:22:59 437.345 MHz
AO-40 01 Oct 00:21:02 01:48:06 19° 228° (SW) 04:18:54 Beacon 2401.320
ISS 01 Oct 00:42:10 00:45:01 25° 338° (NNW) 00:47:52 145.800 FM
RS-15 01 Oct 01:08:22 01:12:52 13° 96° (E) 01:17:20 29.354 - 29.394 USB, Beacon 29.352 USB
Saudisat 1A 01 Oct 01:32:37 01:33:40 11° 253° (WSW) 01:34:43 436.775 MHz
KITSAT 1 01 Oct 01:38:29 01:45:26 30° 41° (NE) 01:52:20 435.175 FM
Oscar 19 01 Oct 02:18:54 02:22:57 23° 94° (E) 02:26:57 437.125 CW, 437.150 USB
ISS 01 Oct 02:20:42 02:22:34 14° 358° (N) 02:24:27 145.800 FM
ITAMSAT 1 01 Oct 02:31:49 02:33:52 12° 89° (E) 02:35:55 435.822 SSB
Uribyol 2 01 Oct 02:32:22 02:34:52 13° 90° (E) 02:37:22 436.500 FM
Oscar 16 01 Oct 02:59:13 03:04:18 57° 101° (E) 03:09:21 437.025 USB, Beacon 2401.1428
SO-50 01 Oct 03:05:30 03:07:03 11° 34° (NNE) 03:08:37 436.795 FM
AO-27 01 Oct 03:08:14 03:12:45 29° 96° (E) 03:17:14 436.795 MHz FM
AO-Echo 01 Oct 03:10:18 03:14:57 36° 98° (E) 03:19:42 ?
RS-15 01 Oct 03:12:05 03:23:00 69° 116° (ESE) 03:33:47 29.354 - 29.394 USB, Beacon 29.352 USB
JAS-1B 01 Oct 03:30:29 03:36:07 60° 102° (ESE) 03:42:13 435.800 - 435.900 CW/SSB
Gurwin Techsat 1B 01 Oct 03:32:10 03:36:25 24° 94° (E) 03:40:39 435.225 FM
KITSAT 1 01 Oct 03:33:31 03:41:35 75° 243° (WSW) 03:49:36 435.175 FM
OPAL 01 Oct 03:49:46 03:50:17 10° 54° (NE) 03:50:48 ?
ISS 01 Oct 03:57:35 04:00:12 21° 18° (NNE) 04:02:49 145.800 FM
Oscar 19 01 Oct 03:57:37 04:02:27 42° 290° (WNW) 04:07:15 437.125 CW, 437.150 USB
TMSAT-1 01 Oct 04:00:35 04:05:19 32° 96° (E) 04:10:02 436.925 FM
ITAMSAT 1 01 Oct 04:08:42 04:13:57 80° 286° (WNW) 04:19:10 435.822 SSB
Uribyol 2 01 Oct 04:09:39 04:14:53 74° 286° (WNW) 04:20:05 436.500 FM
Oscar 16 01 Oct 04:39:42 04:43:11 19° 298° (WNW) 04:46:39 437.025 USB, Beacon 2401.1428
SO-50 01 Oct 04:43:53 04:48:39 57° 54° (NE) 04:53:26 436.795 FM
AO-27 01 Oct 04:47:33 04:52:16 35° 292° (WNW) 04:56:59 436.795 MHz FM
AO-Echo 01 Oct 04:49:23 04:53:34 27° 293° (WNW) 04:57:50 ?
AO-7 01 Oct 04:50:05 04:56:41 26° 94° (E) 05:03:15 29.400 - 29.500 MHz
Gurwin Techsat 1B 01 Oct 05:11:32 05:16:33 43° 290° (WNW) 05:21:32 435.225 FM
UOSAT-12 01 Oct 05:13:20 05:16:08 15° 38° (NE) 05:18:54 437.025 FM, 437.400 FM
JAS-1B 01 Oct 05:22:33 05:26:24 19° 299° (WNW) 05:30:25 435.800 - 435.900 CW/SSB
OPAL 01 Oct 05:23:02 05:28:13 71° 72° (ENE) 05:33:26 ?
RS-15 01 Oct 05:26:01 05:36:05 40° 321° (NW) 05:46:13 29.354 - 29.394 USB, Beacon 29.352 USB
KITSAT 1 01 Oct 05:32:03 05:35:35 14° 261° (W) 05:39:06 435.175 FM
ISS 01 Oct 05:33:54 05:37:14 83° 217° (SW) 05:40:33 145.800 FM
MaSat-1 01 Oct 05:39:56 05:43:51 25° 106° (ESE) 05:47:40 437.345 MHz
TMSAT-1 01 Oct 05:40:30 05:45:11 32° 293° (WNW) 05:49:50 436.925 FM
ITAMSAT 1 01 Oct 05:51:15 05:52:34 11° 303° (WNW) 05:53:53 435.822 SSB
JAS-2 01 Oct 06:09:50 06:15:04 23° 93° (E) 06:20:39 435.800 - 435.900 CW/SSB, 435.910 FM
Uosat F 01 Oct 06:10:03 06:15:07 87° 104° (ESE) 06:20:10 435.120 FM
SO-50 01 Oct 06:25:31 06:28:48 18° 250° (WSW) 06:32:05 436.795 FM
STRAND 1 01 Oct 06:26:17 06:29:58 21° 63° (ENE) 06:33:41 ?
AO-7 01 Oct 06:41:50 06:50:04 70° 292° (WNW) 06:58:17 29.400 - 29.500 MHz
UOSAT-12 01 Oct 06:52:13 06:56:59 88° 57° (ENE) 07:01:38 437.025 FM, 437.400 FM
Hamsat 01 Oct 07:00:55 07:04:48 35° 97° (E) 07:08:38 145.90 MHz
OPAL 01 Oct 07:04:50 07:07:35 14° 268° (W) 07:10:20 ?
MaSat-1 01 Oct 07:15:37 07:20:10 39° 301° (WNW) 07:24:30 437.345 MHz
SO-67 01 Oct 07:40:07 07:40:44 10° 91° (E) 07:41:20 435.3500 MHz FM
RS-15 01 Oct 07:45:01 07:52:42 21° 354° (N) 08:00:28 29.354 - 29.394 USB, Beacon 29.352 USB
Uosat F 01 Oct 07:51:11 07:53:10 12° 301° (WNW) 07:55:09 435.120 FM
JAS-2 01 Oct 07:53:49 08:00:25 68° 287° (WNW) 08:07:47 435.800 - 435.900 CW/SSB, 435.910 FM
STRAND 1 01 Oct 08:03:51 08:08:47 50° 260° (W) 08:13:46 ?
UOSAT-12 01 Oct 08:35:51 08:36:21 10° 254° (WSW) 08:36:52 437.025 FM, 437.400 FM
AO-7 01 Oct 08:36:44 08:41:23 17° 313° (NW) 08:46:04 29.400 - 29.500 MHz
Hamsat 01 Oct 08:37:30 08:40:31 19° 293° (WNW) 08:43:30 145.90 MHz
Sapphire 01 Oct 09:02:43 09:05:04 13° 103° (ESE) 09:07:26 437.095 MHz 1200 baud AX-25 AFSK
HO-68 01 Oct 09:06:33 09:10:00 14° 88° (E) 09:13:27 435.675 MHz FM
SO-67 01 Oct 09:10:41 09:13:58 42° 286° (WNW) 09:17:14 435.3500 MHz FM
PCSat 01 Oct 09:26:05 09:30:20 24° 107° (ESE) 09:34:36 145.825 MHz
JAS-2 01 Oct 09:41:47 09:44:29 13° 304° (WNW) 09:47:17 435.800 - 435.900 CW/SSB, 435.910 FM
RS-15 01 Oct 10:00:43 10:10:06 30° 30° (NNE) 10:19:42 29.354 - 29.394 USB, Beacon 29.352 USB
Sapphire 01 Oct 10:42:19 10:47:43 83° 299° (WNW) 10:53:11 437.095 MHz 1200 baud AX-25 AFSK
HO-68 01 Oct 10:51:27 10:58:41 83° 106° (ESE) 11:05:53 435.675 MHz FM
Oscar 11 01 Oct 10:54:31 10:58:31 36° 97° (E) 11:02:30 145.825 FM, Beacon 2401.500 USB
PCSat 01 Oct 11:08:11 11:13:25 48° 305° (NW) 11:18:41 145.825 MHz
FUNcube-1 01 Oct 11:19:22 11:23:20 29° 95° (E) 11:27:12 145.950 - 145.970 MHz USB
UKube-1 01 Oct 11:23:55 11:28:19 85° 284° (WNW) 11:32:41 145.840 MHz, 145.915 MHz
ZACube-1 01 Oct 12:04:12 12:08:48 89° 103° (ESE) 12:13:15 437.345 MHz
RS-15 01 Oct 12:13:09 12:24:21 83° 57° (ENE) 12:36:00 29.354 - 29.394 USB, Beacon 29.352 USB
Sapphire 01 Oct 12:28:48 12:32:00 16° 320° (NW) 12:35:13 437.095 MHz 1200 baud AX-25 AFSK
Oscar 11 01 Oct 12:31:16 12:34:28 20° 294° (WNW) 12:37:38 145.825 FM, Beacon 2401.500 USB
HO-68 01 Oct 12:40:34 12:45:32 21° 305° (NW) 12:50:31 435.675 MHz FM
Oscar 16 01 Oct 12:41:13 12:42:49 11° 58° (ENE) 12:44:24 437.025 USB, Beacon 2401.1428
FUNcube-1 01 Oct 12:55:48 12:59:37 27° 292° (WNW) 13:03:22 145.950 - 145.970 MHz USB
PCSat 01 Oct 12:57:37 12:58:13 10° 326° (NNW) 12:58:49 145.825 MHz
Oscar 19 01 Oct 13:35:39 13:40:18 34° 68° (ENE) 13:44:58 437.125 CW, 437.150 USB
ITAMSAT 1 01 Oct 13:49:15 13:52:59 21° 63° (ENE) 13:56:44 435.822 SSB
Uribyol 2 01 Oct 13:49:50 13:53:45 22° 63° (ENE) 13:57:40 436.500 FM
Saudisat 1A 01 Oct 13:57:56 14:01:05 20° 111° (ESE) 14:04:15 436.775 MHz
JAS-1B 01 Oct 14:15:07 14:22:29 56° 71° (ENE) 14:28:42 435.800 - 435.900 CW/SSB
Oscar 16 01 Oct 14:16:08 14:21:19 84° 75° (ENE) 14:26:33 437.025 USB, Beacon 2401.1428
AO-Echo 01 Oct 14:23:42 14:28:08 45° 71° (ENE) 14:32:38 ?
AO-27 01 Oct 14:26:23 14:31:16 44° 70° (ENE) 14:36:11 436.795 MHz FM
RS-15 01 Oct 14:26:53 14:35:29 27° 257° (WSW) 14:44:24 29.354 - 29.394 USB, Beacon 29.352 USB
Gurwin Techsat 1B 01 Oct 14:53:11 14:58:03 38° 69° (ENE) 15:02:56 435.225 FM
Oscar 19 01 Oct 15:15:09 15:19:38 29° 264° (W) 15:24:09 437.125 CW, 437.150 USB
TMSAT-1 01 Oct 15:21:19 15:26:24 51° 71° (ENE) 15:31:31 436.925 FM
ITAMSAT 1 01 Oct 15:27:03 15:32:05 52° 260° (W) 15:37:09 435.822 SSB
Uribyol 2 01 Oct 15:27:53 15:32:52 48° 260° (W) 15:37:55 436.500 FM
MaSat-1 01 Oct 15:30:50 15:34:00 34° 58° (ENE) 15:36:45 437.345 MHz
Saudisat 1A 01 Oct 15:36:07 15:40:20 45° 308° (NW) 15:44:35 436.775 MHz
Uosat F 01 Oct 15:47:21 15:50:12 15° 61° (ENE) 15:53:04 435.120 FM
AO-7 01 Oct 15:49:07 15:56:29 38° 59° (ENE) 16:03:51 29.400 - 29.500 MHz
Oscar 16 01 Oct 15:59:40 16:01:18 11° 271° (W) 16:02:56 437.025 USB, Beacon 2401.1428
AO-Echo 01 Oct 16:03:57 16:07:10 18° 268° (W) 16:10:24 ?
AO-27 01 Oct 16:06:57 16:10:57 23° 266° (W) 16:15:00 436.795 MHz FM
JAS-1B 01 Oct 16:07:10 16:13:17 26° 264° (W) 16:18:41 435.800 - 435.900 CW/SSB
KITSAT 1 01 Oct 16:10:54 16:15:01 15° 100° (E) 16:19:08 435.175 FM
Gurwin Techsat 1B 01 Oct 16:33:38 16:38:05 27° 265° (W) 16:42:34 435.225 FM
TMSAT-1 01 Oct 17:02:45 17:06:36 20° 268° (W) 17:10:28 436.925 FM
Uosat F 01 Oct 17:23:27 17:28:25 68° 258° (WSW) 17:33:25 435.120 FM
OPAL 01 Oct 17:34:16 17:37:38 18° 94° (E) 17:40:58 ?
AO-7 01 Oct 17:40:59 17:49:00 52° 258° (WSW) 17:57:03 29.400 - 29.500 MHz
Oscar 10/S400 01 Oct 17:45:47 18:03:40 51° 159° (SSE) 18:49:44 145.825 - 145.975 CW/USB, Beacon 145.810 USB
Sapphire 01 Oct 17:48:19 17:51:25 15° 40° (NE) 17:54:30 437.095 MHz 1200 baud AX-25 AFSK
Hamsat 01 Oct 17:54:25 17:58:04 27° 69° (ENE) 18:01:42 145.90 MHz
KITSAT 1 01 Oct 18:01:02 18:09:06 79° 118° (ESE) 18:17:13 435.175 FM
JAS-2 01 Oct 18:07:15 18:12:14 51° 71° (ENE) 18:17:31 435.800 - 435.900 CW/SSB, 435.910 FM
PCSat 01 Oct 18:13:09 18:17:27 23° 46° (NE) 18:21:43 145.825 MHz
SO-50 01 Oct 19:00:41 19:03:32 17° 109° (ESE) 19:06:26 436.795 FM
OPAL 01 Oct 19:11:53 19:16:52 55° 291° (WNW) 19:21:45 ?
Sapphire 01 Oct 19:30:17 19:35:44 79° 60° (ENE) 19:41:10 437.095 MHz 1200 baud AX-25 AFSK
Hamsat 01 Oct 19:30:18 19:33:57 26° 265° (W) 19:37:36 145.90 MHz
HO-68 01 Oct 19:37:33 19:40:19 13° 49° (NE) 19:43:06 435.675 MHz FM
SO-67 01 Oct 19:43:07 19:46:30 56° 75° (ENE) 19:49:54 435.3500 MHz FM
JAS-2 01 Oct 19:54:18 19:57:49 18° 270° (W) 20:01:26 435.800 - 435.900 CW/SSB, 435.910 FM
PCSat 01 Oct 19:55:55 20:01:16 60° 245° (WSW) 20:06:34 145.825 MHz
KITSAT 1 01 Oct 19:58:34 20:05:22 29° 320° (NW) 20:12:12 435.175 FM
STRAND 1 01 Oct 20:14:10 20:19:14 55° 101° (E) 20:24:16 ?
SO-50 01 Oct 20:39:14 20:43:37 54° 307° (NW) 20:48:10 436.795 FM
UOSAT-12 01 Oct 21:04:03 21:07:52 26° 113° (ESE) 21:11:45 437.025 FM, 437.400 FM
PANSAT 01 Oct 21:15:23 21:16:38 11° 174° (S) 21:17:53 not established
Sapphire 01 Oct 21:15:46 21:18:26 14° 257° (WSW) 21:21:05 437.095 MHz 1200 baud AX-25 AFSK
HO-68 01 Oct 21:19:38 21:26:38 63° 69° (ENE) 21:33:41 435.675 MHz FM
Oscar 11 01 Oct 21:49:43 21:53:30 30° 69° (ENE) 21:57:18 145.825 FM, Beacon 2401.500 USB
STRAND 1 01 Oct 21:54:23 21:58:00 20° 297° (WNW) 22:01:36 ?
KITSAT 1 01 Oct 22:01:21 22:04:06 12° 349° (NNW) 22:06:51 435.175 FM
FUNcube-1 01 Oct 22:15:53 22:19:35 25° 67° (ENE) 22:23:20 145.950 - 145.970 MHz USB
ISS 01 Oct 22:16:11 22:19:08 30° 136° (SE) 22:22:06 145.800 FM
UKube-1 01 Oct 22:19:14 22:23:34 84° 75° (ENE) 22:27:56 145.840 MHz, 145.915 MHz
Saudisat 1A 01 Oct 22:23:46 22:27:02 20° 43° (NE) 22:30:17 436.775 MHz
SO-50 01 Oct 22:24:33 22:25:16 10° 328° (NNW) 22:26:00 436.795 FM
UOSAT-12 01 Oct 22:43:30 22:47:50 38° 310° (NW) 22:52:16 437.025 FM, 437.400 FM
PANSAT 01 Oct 22:55:01 22:56:00 11° 187° (S) 22:56:59 not established
ZACube-1 01 Oct 23:00:14 23:04:45 72° 75° (ENE) 23:09:23 437.345 MHz
HO-68 01 Oct 23:09:11 23:14:47 25° 267° (W) 23:20:26 435.675 MHz FM
